This demonstration page uses our WeatherBlox Daily Observations layout. Learn more.

Left ArrowRight Arrow

Hourly Observations for August 18, 2022

Temp ( °F °C ) Dew Point ( °F °C ) Humidity (%) Winds ( mph kmh ) Pressure ( in mb ) Visibility ( mi km ) Precip ( " mm )
12:56 am 00:56 Clear 66 18.9 63 17 89 89 Calm 30.10 1019 10 16 0.00 0.00
1:56 am 01:56 Clear 65 18.5 63 17 91 91 Calm 30.09 1019 10 16 0.00 0.00
2:56 am 02:56 Clear 65 18.3 62 16.8 91 91 Calm 30.09 1019 10 16 0.00 0.00
3:56 am 03:56 Clear 65 18.4 63 17.1 92 92 Calm 30.08 1019 10 16 0.00 0.00
4:56 am 04:56 Clear 64 17.5 62 16.8 96 96 Calm 30.09 1019 7 11 0.00 0.00
5:56 am 05:56 Clear 63 17 63 17 100 100 Calm 30.07 1018 7 11 0.00 0.00
6:56 am 06:56 Sunny 62 16.8 62 16.8 100 100 Calm 30.09 1019 6 10 0.00 0.00
7:56 am 07:56 Sunny 63 17.2 62 16.7 97 97 Calm 30.09 1019 9 14 0.00 0.00
8:56 am 08:56 Mostly Sunny 66 18.9 62 16.5 86 86 Calm 30.09 1019 10 16 0.00 0.00
9:56 am 09:56 Sunny 72 22 63 17.1 74 74 S 5 7 30.07 1018 10 16 0.00 0.00
10:56 am 10:56 Sunny 78 25.7 64 17.8 62 62 Calm 30.05 1018 10 16 0.00 0.00
11:56 am 11:56 Mostly Sunny 81 27.3 63 17.4 55 55 WSW 8 13 30.04 1017 10 16 0.00 0.00
12:56 pm 12:56 Mostly Sunny 83 28.2 60 15.8 47 47 SSW 9 15 30.01 1016 10 16 0.00 0.00
1:56 pm 13:56 Partly Cloudy 83 28.3 61 15.9 47 47 SW 12 19 30.00 1016 9 14 0.00 0.00
2:56 pm 14:56 Sunny 86 30 60 15.7 42 42 SSW 10 17 29.97 1015 9 14 0.00 0.00
3:46 pm 15:46 Sunny 88 31 59 15 38 38 SW 13 20 29.95 1014 9 14 0.00 0.00
3:56 pm 15:56 Sunny 87 30.3 59 15.2 40 40 SSW 15 24 29.94 1014 9 14 0.00 0.00
4:54 pm 16:54 Partly Cloudy 88 31 61 16 40 40 WSW 13 20 29.92 1013 9 14 0.00 0.00
4:56 pm 16:56 Partly Cloudy 88 31 59 15 38 38 WSW 12 19 29.92 1013 9 14 0.00 0.00
5:56 pm 17:56 Mostly Sunny 87 30.8 58 14.4 37 37 SSW 17 28 29.89 1012 9 14 0.00 0.00
6:56 pm 18:56 Mostly Cloudy 85 29.5 59 14.8 41 41 SSW 12 19 29.87 1012 10 16 0.00 0.00
7:56 pm 19:56 Mostly Cloudy 83 28.4 60 15.6 46 46 SSW 9 15 29.87 1012 10 16 0.00 0.00
8:56 pm 20:56 Mostly Cloudy 80 26.4 60 15.7 52 52 S 8 13 29.86 1011 10 16 0.00 0.00
9:56 pm 21:56 Partly Cloudy 76 24.2 62 16.9 64 64 ESE 5 7 29.88 1012 10 16 0.00 0.00
10:56 pm 22:56 Clear 75 23.7 61 16 62 62 SSW 8 13 29.87 1011 10 16 0.00 0.00
11:56 pm 23:56 Clear 72 22.3 61 16.1 68 68 E 3 6 29.88 1012 10 16 0.00 0.00

Powered by AerisWeather